GFSMW_sfc_30mbdewp_144.txt.gz
Dewpoint
28 30 32 34 33 35 34 34 34 35 35 34 34 33 33 34 34 35 37 37 37 39 38 38 39 40 40 42 43 43 44 45 47 47 50 53 55 56 58 58 59 59 60
28 29 31 33 34 33 34 33 33 34 34 33 33 33 33 33 34 34 33 34 34 35 34 35 36 36 37 37 39 42 43 44 46 47 47 47 50 53 54 58 59 61 61
28 29 29 32 32 33 33 33 33 33 33 34 32 32 32 31 30 31 31 31 31 32 33 33 34 35 36 36 36 38 39 41 44 46 47 46 45 47 51 55 56 58 60
28 28 29 30 31 32 33 34 33 32 33 33 32 32 30 29 29 29 29 30 30 31 31 32 33 34 34 35 37 36 38 39 41 44 45 46 47 47 48 52 57 57 57
28 28 29 29 29 31 33 34 33 32 31 32 32 31 30 29 28 28 28 28 29 30 31 32 32 32 32 34 35 36 38 38 39 41 43 44 46 45 48 49 49 53 57
29 28 29 29 29 31 33 33 31 31 29 31 32 30 29 28 27 27 27 28 29 29 30 31 32 32 33 33 34 36 37 38 38 39 41 42 43 45 47 49 50 52 54
28 28 28 28 29 30 31 29 28 27 28 31 30 30 29 28 27 27 27 27 29 30 30 30 31 32 33 35 35 35 36 37 38 39 40 40 42 43 45 46 47 49 51
29 29 28 29 28 27 27 26 23 23 27 29 29 29 28 28 27 28 28 30 30 30 31 31 32 32 33 34 35 36 37 37 38 38 41 41 40 40 41 43 45 44 46
29 29 29 29 27 24 25 25 21 23 27 28 29 29 28 27 26 29 29 30 29 31 32 30 31 32 32 33 34 34 35 37 38 39 40 41 42 41 41 42 43 43 42
28 29 29 29 25 23 25 26 24 23 24 25 27 26 26 27 28 28 29 29 30 31 31 31 30 30 31 31 32 32 33 34 34 36 36 37 39 42 43 44 45 46 45
31 31 31 29 26 27 26 27 26 25 23 23 24 25 26 26 27 28 28 29 30 30 30 29 29 29 30 30 30 30 30 30 31 31 31 31 34 36 38 41 45 47 48
33 35 30 30 29 28 27 27 25 25 24 23 24 25 25 26 26 26 26 25 26 29 30 29 28 27 28 30 28 29 29 28 28 29 28 29 29 31 32 35 38 41 43
33 33 30 27 27 28 26 26 26 25 25 24 24 24 24 25 26 25 25 23 23 24 23 24 25 25 26 27 27 28 27 27 26 27 29 28 28 28 28 29 32 34 40
32 31 29 28 26 27 26 25 25 25 25 24 23 23 24 24 25 24 23 23 22 23 21 21 23 23 23 23 24 24 24 25 25 25 26 28 29 28 27 27 28 30 31
30 29 28 27 26 24 25 25 25 24 23 22 22 22 23 24 23 24 22 23 22 22 22 20 21 22 22 22 21 20 20 19 20 22 23 26 30 30 29 27 26 27 27
29 29 27 25 23 20 20 20 23 24 23 22 21 22 22 23 23 23 23 23 22 21 20 20 19 20 23 21 19 19 18 18 17 18 18 19 22 25 27 28 28 26 25
29 28 26 24 19 17 17 19 22 22 22 21 21 21 21 22 22 23 23 22 21 20 19 19 18 18 21 21 21 20 19 17 17 16 17 17 19 21 23 22 23 24 23
29 28 25 19 17 15 14 15 16 17 17 20 22 21 21 21 22 22 23 23 22 21 18 18 18 17 18 19 20 19 20 17 16 16 16 16 17 18 20 21 21 22 23
30 28 23 19 17 12 12 9 10 12 13 14 16 21 21 21 22 22 22 23 23 22 21 19 17 16 16 16 18 20 18 17 16 16 15 15 15 16 17 18 18 19 20
28 25 21 19 21 16 19 16 15 18 19 17 16 18 19 20 21 22 22 23 23 22 23 22 19 16 17 15 15 16 17 16 16 16 16 14 14 14 14 16 16 16 18
25 25 25 23 22 23 23 21 21 21 21 21 21 21 20 20 21 21 22 22 21 21 21 21 21 20 17 16 15 15 17 16 15 15 15 15 13 13 13 14 14 15 17
26 26 24 23 23 22 22 21 20 20 21 21 21 21 22 23 23 22 22 22 23 21 20 20 18 17 17 15 15 14 15 16 16 15 16 15 13 13 12 12 12 12 14
25 26 24 23 23 22 21 19 20 20 20 20 20 21 22 23 24 23 23 23 22 20 20 20 19 17 16 15 13 14 14 16 19 17 14 13 12 12 13 11 10 12 12
24 24 23 22 22 23 22 20 21 21 20 20 20 21 22 23 24 21 19 18 18 21 20 17 17 16 14 13 14 14 14 16 16 18 16 15 15 12 13 13 12 11 10
22 21 20 20 21 22 22 21 21 21 19 20 21 20 20 20 19 17 18 16 15 15 15 19 13 12 11 11 11 11 12 13 14 16 15 14 13 12 11 11 11 10 9
20 19 18 18 19 20 20 20 20 19 18 18 18 18 19 20 17 15 14 13 13 12 12 11 13 13 10 9 10 10 9 9 11 12 12 11 11 9 9 9 9 10 9

GFSMW_sfc_30mbdewp_147.txt.gz
Dewpoint
30 32 33 34 35 35 33 34 34 34 34 33 33 33 32 33 33 32 32 32 31 32 32 33 34 35 35 36 35 36 38 39 44 45 46 47 50 54 58 58 58 58 58
30 32 33 34 34 34 33 34 33 34 34 33 33 32 32 32 32 31 31 30 30 31 30 31 32 33 34 35 34 34 35 37 40 43 45 44 44 49 54 57 57 57 58
29 30 32 33 33 33 33 34 33 33 33 33 33 32 31 30 29 29 29 29 30 29 30 31 32 32 33 32 33 34 34 34 38 40 42 44 45 46 50 54 56 58 58
29 30 31 31 32 33 34 34 34 31 31 33 32 30 29 28 28 28 28 28 29 29 30 31 31 31 31 31 31 32 34 35 35 37 39 43 43 44 44 50 53 56 57
28 29 30 30 32 33 34 33 33 30 31 32 31 30 29 29 28 28 27 28 28 29 30 30 30 31 31 32 33 33 33 35 35 35 37 39 42 43 45 43 45 52 55
29 29 29 30 32 33 33 31 30 29 31 32 30 29 28 27 27 27 27 28 29 29 30 30 30 31 31 32 33 34 35 35 35 37 37 37 39 42 44 45 45 47 50
28 29 29 29 31 30 28 26 25 27 30 30 30 29 28 27 27 28 28 27 28 28 29 30 29 30 31 32 33 34 35 36 35 36 37 38 39 40 41 41 41 44 46
29 28 29 29 28 27 26 22 23 27 28 29 29 28 28 27 27 28 28 28 28 29 31 31 29 30 32 32 33 34 33 35 37 37 37 38 39 41 40 41 40 39 41
29 29 30 27 25 26 25 23 23 25 26 28 27 27 27 27 27 28 28 28 29 30 30 29 28 29 31 31 32 31 31 33 36 37 38 39 40 42 41 41 40 40 38
30 30 29 25 25 27 26 25 25 24 24 25 25 25 26 27 27 28 27 27 29 29 30 28 27 28 29 29 31 30 31 31 31 32 32 33 35 38 40 42 43 43 42
30 31 29 27 27 27 26 26 25 25 23 25 26 25 25 26 26 27 26 25 26 25 26 28 27 27 27 27 27 28 28 27 27 30 30 30 32 33 33 35 40 42 45
32 31 28 27 24 24 25 25 25 24 24 25 25 25 25 25 25 26 25 25 25 24 23 24 24 24 25 26 24 24 25 25 24 25 29 28 29 29 30 32 34 37 41
31 29 28 26 23 23 26 24 24 24 24 24 23 23 24 24 25 24 25 23 23 22 21 22 24 23 22 21 21 22 22 23 23 23 25 28 27 27 28 29 30 33 35
32 30 27 25 25 25 23 24 24 24 23 23 22 22 23 23 24 23 24 22 22 21 20 21 22 25 21 20 19 19 18 19 20 21 23 26 28 27 27 26 27 28 28
32 30 28 26 25 26 24 24 23 23 22 21 21 21 22 23 24 23 23 22 21 20 20 19 20 23 23 19 18 18 18 16 17 18 19 23 27 28 29 26 25 25 24
31 30 29 27 26 26 24 26 23 22 21 20 20 21 21 22 23 24 22 20 19 20 18 18 18 21 25 21 17 17 17 17 15 17 18 19 21 23 23 24 25 25 24
30 29 28 26 24 24 25 24 23 22 21 20 19 20 21 21 22 23 22 19 17 18 18 17 17 19 22 20 19 17 16 16 16 15 17 18 19 19 20 21 22 23 22
30 28 26 24 21 20 22 23 23 22 21 20 20 20 20 20 21 22 22 21 19 17 17 17 16 17 18 18 18 17 17 15 16 16 15 16 17 18 18 18 18 18 20
30 27 24 20 17 16 19 19 19 19 22 22 21 21 20 20 21 20 21 22 22 19 17 17 16 16 17 17 16 17 16 16 15 16 17 16 16 15 16 16 15 15 16
27 24 21 19 17 16 15 17 16 17 16 19 21 21 22 22 21 20 20 22 22 21 20 18 18 17 17 16 17 17 16 15 15 16 17 15 15 14 15 15 14 13 14
23 22 20 18 19 20 18 18 19 19 20 21 21 21 21 21 22 22 23 22 21 22 21 19 18 17 16 17 16 17 18 16 16 15 15 16 14 13 12 13 13 12 13
23 21 19 20 20 20 18 19 18 20 20 21 21 21 22 23 23 21 22 23 23 22 20 18 17 16 16 14 15 16 17 18 19 14 14 14 12 13 12 10 11 12 12
23 22 20 20 20 20 19 18 19 20 19 20 20 21 23 23 22 22 20 20 22 19 20 19 16 14 14 14 13 13 14 16 16 16 15 14 11 12 13 10 9 10 11
24 23 21 20 20 20 19 17 19 19 19 19 20 20 22 22 19 18 17 16 17 17 17 15 13 11 11 12 12 12 12 14 16 14 13 12 14 12 12 12 12 11 10
25 23 22 21 21 21 18 19 20 20 19 19 20 23 22 18 17 16 15 14 15 16 15 12 11 9 9 11 12 11 12 13 13 11 11 10 10 9 9 9 10 11 11
24 23 22 21 22 22 21 20 20 19 20 20 21 21 19 18 16 15 14 14 14 13 14 14 11 10 11 11 12 11 10 9 9 8 8 7 6 8 8 8 8 9 9

GFSMW_sfc_30mbdewp_150.txt.gz
Dewpoint
31 33 34 35 34 33 34 34 33 33 33 32 31 32 31 31 31 31 30 29 30 30 30 31 32 33 33 34 34 33 33 34 36 37 41 42 46 47 51 58 59 59 60
31 33 34 34 33 33 34 33 33 33 33 32 32 31 30 30 30 30 29 29 29 30 30 30 31 32 31 32 32 31 32 32 33 35 38 39 43 46 46 51 57 57 58
31 33 33 33 33 33 33 33 32 32 33 32 31 30 30 29 28 28 28 28 29 30 30 30 30 30 31 31 31 31 30 32 33 35 38 38 42 43 48 52 56 56 57
31 33 33 32 32 33 34 33 31 31 32 31 30 28 28 27 28 28 28 28 29 30 30 30 29 30 31 31 32 32 32 33 32 34 33 36 40 41 42 46 46 53 56
30 32 32 31 33 34 33 31 30 31 32 30 29 28 27 28 28 28 27 28 28 29 29 30 28 29 30 31 32 32 32 33 33 33 35 35 36 39 42 40 42 48 51
30 31 31 32 33 33 31 29 29 30 31 29 28 28 27 27 26 28 27 27 27 27 29 29 29 29 30 31 31 32 34 34 34 35 35 35 35 36 40 43 43 42 45
29 29 30 32 32 29 26 26 28 29 30 29 28 27 27 26 26 27 27 27 27 28 28 29 28 29 31 31 32 33 32 33 33 35 36 36 36 37 38 39 39 40 41
29 29 30 31 29 25 22 26 27 28 29 27 27 27 27 27 27 28 27 27 28 29 30 29 28 27 30 29 32 31 31 32 32 35 37 37 38 38 38 40 39 37 38
29 29 30 29 27 24 23 24 25 26 27 26 25 25 26 26 26 27 27 27 29 27 28 28 27 26 27 27 29 28 28 29 30 31 32 34 36 39 40 40 40 39 36
29 29 28 27 26 25 25 25 24 24 25 25 25 25 25 26 26 26 25 26 26 25 26 26 25 25 25 25 25 26 27 27 27 29 30 31 32 34 35 37 42 42 41
30 30 27 27 26 26 26 25 24 23 24 25 24 24 25 25 25 25 24 25 24 23 24 25 24 22 23 23 23 23 23 23 23 25 29 28 30 30 31 34 37 40 40
31 30 27 27 26 24 24 24 24 23 24 25 24 24 24 24 24 24 23 24 23 22 23 23 24 20 20 20 21 21 22 21 21 23 26 27 28 28 29 31 33 35 37
31 28 26 24 24 23 23 23 22 23 24 23 23 23 23 23 23 24 22 22 22 21 21 22 24 20 19 19 19 19 19 20 21 23 24 27 26 26 26 28 29 31 31
30 28 26 24 22 24 22 21 22 22 22 21 22 21 22 22 22 23 22 21 20 20 20 21 23 21 19 18 18 18 17 18 19 21 24 25 26 26 25 25 26 26 26
29 28 27 25 24 23 23 23 23 22 21 20 20 21 21 23 23 22 21 20 19 18 19 20 22 23 19 18 17 18 17 16 17 19 21 22 23 24 27 24 24 24 23
31 30 28 25 26 23 23 22 23 21 20 19 20 20 21 22 22 19 18 19 18 17 17 18 20 22 20 17 17 17 17 16 16 17 18 19 20 20 21 22 21 22 21
32 31 29 26 25 24 23 22 21 21 20 19 19 20 20 21 21 21 17 16 16 16 16 17 18 19 19 17 16 17 16 16 16 16 17 17 18 17 17 17 18 19 19
32 31 29 27 26 26 25 23 21 20 19 20 20 19 20 21 21 20 18 16 16 15 16 16 17 18 18 16 16 16 15 15 16 16 16 17 16 16 15 14 13 14 17
31 30 28 26 24 24 24 23 20 19 18 19 20 20 20 20 20 21 21 18 16 15 16 17 17 16 18 17 16 17 16 15 15 17 16 16 16 14 14 12 11 11 12
30 27 25 22 21 23 23 23 22 22 21 20 20 21 22 21 20 20 21 21 18 17 18 17 17 17 16 18 17 18 17 15 15 16 17 14 14 14 13 13 11 9 10
26 23 21 20 20 22 21 19 19 19 21 22 22 22 23 22 22 22 23 23 21 21 18 16 16 15 16 18 18 18 19 18 15 14 15 16 12 11 12 12 11 10 9
23 20 18 17 18 20 19 18 16 18 20 21 21 21 22 23 23 22 23 24 22 21 18 15 14 14 15 15 16 17 18 18 16 14 14 14 13 12 10 11 10 9 9
20 19 18 18 18 19 18 17 18 19 19 19 20 21 22 23 22 21 20 21 22 21 19 14 12 12 14 14 14 18 17 16 15 15 13 12 11 12 12 10 11 11 9
20 19 18 17 17 18 19 18 19 19 19 19 20 21 21 19 18 18 18 18 17 16 16 11 9 10 11 12 11 13 13 13 12 11 11 11 11 10 10 11 10 11 10
23 20 19 19 19 19 17 19 19 19 19 20 21 22 20 16 15 15 15 16 15 14 11 9 9 9 10 12 12 13 13 13 11 8 8 7 8 7 8 7 8 9 9
24 22 21 21 20 19 18 19 19 19 19 20 21 22 19 17 15 15 15 16 17 15 13 12 11 11 12 13 14 11 11 9 9 7 5 6 5 6 6 6 6 6 7

GFSMW_sfc_30mbdewp_156.txt.gz
Dewpoint
33 34 34 34 34 34 33 32 31 32 31 31 30 30 29 28 29 29 29 30 30 30 29 29 30 28 28 29 30 30 30 30 32 31 30 31 32 34 36 41 43 44 45
32 34 33 33 33 33 33 32 31 31 30 30 30 30 30 29 28 29 28 29 29 29 28 28 30 28 28 28 29 29 29 31 30 29 30 31 32 35 36 41 40 43 47
31 33 33 33 33 33 32 32 31 30 29 28 27 27 27 28 27 27 27 28 28 28 28 28 29 28 27 28 29 30 29 29 29 30 31 28 30 32 37 38 45 46 49
31 33 33 32 33 33 32 32 31 30 29 27 26 24 23 23 27 27 27 27 28 29 28 28 28 27 28 29 29 29 31 32 30 31 33 34 34 30 31 34 36 39 46
31 33 33 33 33 33 31 31 30 29 28 27 26 25 25 26 27 27 26 27 27 29 27 27 26 26 27 28 27 30 30 30 31 31 31 32 34 35 33 30 32 36 44
31 33 33 33 33 32 30 31 29 29 28 27 26 25 24 25 24 24 25 25 27 27 27 27 26 26 27 26 26 29 28 28 28 30 31 31 31 32 33 34 35 38 41
31 33 32 32 33 31 30 30 29 28 27 26 25 25 25 25 24 24 25 25 25 26 26 27 26 26 26 25 26 27 26 27 27 27 29 31 33 36 35 35 34 34 37
32 32 32 32 32 30 29 29 29 28 26 25 24 25 25 25 24 24 24 24 24 25 25 25 24 24 25 25 25 25 24 25 25 26 28 29 32 33 36 36 35 33 37
32 32 32 33 32 29 28 29 28 27 25 23 24 24 25 25 23 24 24 23 23 24 24 24 21 22 22 23 23 24 23 24 24 25 28 28 30 32 33 34 36 36 34
31 31 32 32 29 27 28 28 28 26 24 23 24 24 25 25 23 23 22 22 22 23 23 24 21 20 21 21 21 22 22 22 24 25 27 27 28 30 31 32 35 40 37
31 31 32 31 26 26 26 26 26 25 24 23 23 24 24 24 23 22 22 21 22 23 23 23 20 19 20 20 20 20 21 21 22 23 26 25 27 27 28 31 33 35 37
30 32 32 29 26 25 25 24 25 24 23 23 23 24 24 23 21 21 21 21 21 22 23 23 20 19 19 20 20 19 20 20 21 22 23 25 25 25 26 28 29 31 31
30 30 29 28 26 24 24 24 24 24 23 23 23 23 23 21 19 19 20 20 21 21 23 23 19 20 18 19 19 19 19 20 20 21 22 24 24 23 24 25 26 28 29
30 29 28 27 26 25 24 23 23 23 23 22 22 20 21 20 19 19 19 20 20 21 22 23 20 20 20 18 18 18 19 19 19 20 20 22 24 24 23 22 23 25 25
30 29 28 27 25 24 23 22 22 22 21 20 20 19 20 21 20 19 19 19 20 20 21 21 21 20 20 19 17 17 17 18 18 18 17 18 19 21 22 21 21 21 22
30 29 28 26 25 24 22 21 22 20 20 19 20 20 20 17 17 18 18 18 18 17 17 18 18 19 20 19 17 17 16 16 16 16 16 15 15 16 18 20 19 20 19
31 30 29 26 25 23 22 21 21 21 19 18 19 20 15 14 15 17 16 16 16 16 16 17 17 17 19 19 19 18 15 15 15 15 15 15 14 12 12 14 15 17 17
31 30 29 26 25 23 21 21 21 20 19 19 19 18 14 14 13 14 14 14 15 15 16 17 17 18 19 18 18 17 15 15 16 15 15 14 14 13 10 9 10 10 15
32 31 29 27 23 23 22 20 20 19 19 19 20 20 17 15 13 13 14 15 15 15 15 16 18 17 18 17 17 17 16 15 15 16 16 15 13 11 10 7 6 6 7
32 30 28 26 24 22 21 19 18 18 17 19 20 21 20 19 16 14 15 16 15 15 15 15 16 19 18 18 16 16 16 14 16 16 16 14 13 12 9 9 6 5 5
30 29 27 26 24 22 20 17 17 15 17 20 21 21 22 22 21 19 18 18 16 16 15 14 15 15 18 19 18 15 14 14 14 14 15 15 13 12 11 9 8 7 5
29 27 26 25 24 22 20 17 16 16 18 19 20 21 22 23 23 22 20 18 18 17 15 13 14 16 16 22 18 18 16 14 13 12 13 14 13 12 11 10 8 7 6
26 25 25 23 23 23 21 19 17 17 18 19 19 20 21 22 22 22 23 20 20 17 14 12 11 12 14 17 17 17 16 14 14 13 11 10 10 10 10 10 9 8 6
24 23 22 22 22 22 21 20 19 20 19 18 18 19 19 20 20 21 23 21 20 17 16 11 10 10 12 11 13 13 13 11 9 8 7 8 7 5 6 6 7 8 7
22 21 22 21 21 20 19 19 20 21 20 19 19 20 20 20 19 19 20 21 18 18 14 9 10 11 11 10 10 9 8 7 6 5 4 3 3 2 2 3 4 5 3
21 20 20 20 19 19 19 19 20 20 20 19 20 21 20 19 18 18 18 21 20 19 13 12 12 12 15 18 17 13 11 10 7 3 1 0 0 1 1 1 1 3 1

GFSMW_sfc_30mbdewp_159.txt.gz
Dewpoint
34 36 36 36 34 34 34 33 33 34 33 32 31 30 27 27 27 28 29 30 30 30 29 29 30 29 29 29 29 29 29 29 30 30 30 31 33 36 36 39 43 44 43
33 35 35 35 34 34 33 33 32 32 32 30 30 29 28 27 27 27 28 29 30 30 28 29 29 29 28 29 29 29 29 29 31 31 30 28 30 32 31 35 39 40 46
33 34 34 34 34 34 34 33 32 31 30 30 29 28 28 26 25 26 26 28 29 30 29 29 28 28 28 28 28 28 30 29 30 31 31 28 27 30 30 31 35 39 38
33 33 33 34 33 34 34 33 32 30 29 28 25 22 18 18 25 26 26 27 28 29 28 28 28 27 27 27 27 28 29 28 28 30 32 32 32 30 29 30 32 36 38
32 33 33 33 33 34 33 33 31 30 29 27 25 22 22 24 25 25 24 25 27 28 27 27 27 27 26 27 27 27 27 28 28 28 28 29 31 33 32 30 32 37 41
32 33 33 33 33 33 32 32 30 29 28 26 25 24 23 22 20 20 21 23 26 26 24 24 26 26 26 26 26 27 27 26 27 27 28 28 29 30 32 31 33 34 38
31 33 33 33 33 32 32 31 29 28 28 26 25 24 23 22 20 20 21 20 22 23 21 21 23 24 25 25 26 26 25 25 25 26 27 27 28 32 32 33 33 34 35
31 33 33 33 33 32 31 31 29 28 27 25 24 24 23 22 21 21 21 20 22 23 20 20 21 23 24 24 25 25 24 25 25 25 26 27 28 31 32 32 33 33 35
31 33 33 33 33 32 31 31 29 28 26 23 22 22 23 22 20 21 20 22 22 20 21 19 19 22 23 23 24 24 24 25 25 24 26 26 28 29 31 32 33 33 31
31 33 33 34 33 31 31 31 29 27 25 22 22 22 23 22 22 22 22 22 23 22 21 19 19 20 21 22 22 23 23 23 24 24 24 25 27 27 29 32 33 34 34
32 33 33 34 32 31 30 30 29 27 24 22 22 23 25 23 23 22 22 23 24 22 20 19 19 19 20 21 21 21 21 21 22 23 23 24 25 26 27 30 31 32 33
32 33 35 33 31 30 30 30 28 27 24 22 22 25 25 23 22 21 22 23 24 23 21 20 19 18 19 20 20 20 20 20 20 21 22 23 24 24 26 27 28 29 31
32 33 33 30 30 29 28 28 28 27 25 23 24 25 25 22 21 20 22 23 24 24 21 21 21 20 19 19 19 19 19 19 19 19 20 22 23 23 24 25 26 26 28
31 32 31 30 29 28 27 27 27 26 25 25 24 24 23 21 20 20 21 22 22 22 22 20 21 21 19 18 18 18 18 18 18 18 18 19 21 23 23 23 23 24 25
30 31 31 30 28 27 26 25 26 25 25 23 23 22 22 20 19 20 20 21 22 21 18 19 20 19 18 19 18 17 17 16 17 16 15 17 18 19 21 21 21 22 21
30 30 30 29 27 26 25 24 23 23 23 22 21 21 22 21 19 20 20 21 19 20 20 20 20 21 19 19 18 17 16 15 14 15 15 13 14 15 17 19 18 18 18
31 30 30 29 28 26 25 23 23 22 21 20 20 21 20 17 19 19 19 19 20 20 19 20 20 20 20 19 18 18 18 17 16 15 15 14 12 10 11 13 15 16 16
31 31 30 29 28 26 24 23 21 20 19 19 20 19 15 15 17 17 17 19 20 20 20 20 21 21 19 18 17 18 18 18 18 16 15 14 14 12 9 8 10 12 15
33 33 31 29 27 25 23 22 19 18 17 18 20 17 14 14 15 16 18 19 20 20 20 21 21 21 19 17 17 17 17 17 17 18 16 15 13 11 10 9 7 8 10
33 32 30 27 26 25 23 22 19 18 16 18 19 16 14 13 16 17 18 19 20 20 20 21 21 21 22 17 16 18 16 16 15 16 16 14 13 12 11 10 7 6 8
30 30 28 26 25 24 23 21 20 19 20 20 20 19 17 16 16 17 18 18 18 18 19 19 20 20 22 20 16 16 16 15 14 15 15 15 13 12 11 10 9 8 9
30 28 27 25 24 24 23 20 19 20 21 22 22 22 21 21 20 19 19 17 16 15 14 14 16 17 21 21 19 16 15 14 13 13 14 13 13 11 10 9 9 8 9
29 28 26 24 24 23 22 20 19 19 20 21 22 22 23 23 23 21 20 20 19 19 14 12 14 16 19 19 17 16 15 14 13 13 11 10 9 9 9 9 8 7 8
27 26 25 24 23 23 22 21 18 19 19 20 21 22 23 24 24 24 22 21 21 20 19 14 14 16 17 18 18 17 15 12 11 9 8 7 7 6 7 7 7 6 5
25 25 25 25 24 23 22 21 20 19 18 19 20 20 21 22 22 22 23 22 22 21 20 16 14 15 15 15 14 13 12 11 9 8 6 5 4 4 4 4 4 3 1
24 24 24 24 23 23 21 21 20 18 18 18 19 20 20 21 21 22 22 23 22 22 19 15 14 16 16 15 13 12 11 9 7 5 4 4 4 3 2 3 2 1 -0

GFSMW_sfc_30mbdewp_162.txt.gz
Dewpoint
37 36 36 36 34 35 35 35 36 37 35 32 31 31 28 27 27 27 31 31 32 33 32 32 33 33 32 33 33 32 32 32 32 32 31 33 33 38 37 33 35 37 39
36 36 36 36 35 35 34 34 35 36 34 32 31 29 27 25 25 27 29 31 31 32 30 32 31 33 32 33 32 32 31 31 31 30 30 30 31 35 31 34 35 35 38
36 35 36 36 35 35 35 34 33 34 33 31 30 29 28 26 25 25 24 28 30 31 32 32 32 32 31 31 31 31 30 29 30 30 31 30 28 30 32 32 34 37 39
36 35 35 35 35 35 35 34 33 32 33 31 27 26 21 19 22 23 24 25 29 30 30 30 31 32 31 30 30 29 30 29 28 29 30 30 31 29 29 32 33 35 37
36 35 35 35 35 35 35 34 34 32 31 29 27 26 22 21 22 23 25 26 27 29 25 27 29 30 29 29 30 29 29 28 28 27 27 28 29 29 32 30 31 34 37
35 35 35 35 34 35 35 35 33 32 31 29 28 26 24 21 19 20 20 21 24 24 22 22 26 28 28 28 28 29 28 28 28 27 26 27 28 28 29 29 30 33 36
34 35 34 34 33 34 35 35 32 31 30 29 26 25 24 23 21 20 18 19 21 20 19 20 23 25 27 28 28 27 27 27 27 27 27 27 28 29 30 31 30 32 35
34 34 34 34 33 34 34 33 32 30 30 28 25 24 23 20 19 20 18 20 21 19 20 20 20 24 26 26 27 25 26 26 27 26 27 27 28 29 30 31 30 29 34
33 34 34 34 34 34 34 33 31 30 29 27 25 23 23 21 20 21 20 20 21 17 21 20 20 22 24 24 25 24 24 25 26 27 27 27 27 28 30 32 33 31 29
32 33 34 34 34 34 34 34 32 30 29 26 24 22 23 22 22 22 23 23 24 23 21 20 20 21 22 23 23 22 23 23 24 25 26 26 27 27 29 31 33 33 32
31 33 34 34 34 34 34 34 32 31 28 25 23 22 23 24 24 23 24 26 25 22 20 20 20 21 22 23 23 22 22 22 22 23 25 25 26 26 28 29 30 31 31
32 34 38 37 36 36 36 36 33 30 27 24 23 25 27 24 23 23 24 25 25 23 21 22 21 20 21 22 22 21 22 21 21 21 22 24 25 26 27 27 29 29 31
33 34 36 38 37 36 36 34 33 32 29 24 25 27 26 25 24 23 24 25 25 25 21 23 23 21 20 20 20 21 21 21 20 21 21 21 23 24 26 26 27 28 30
33 34 35 35 34 34 33 33 32 32 30 28 28 28 27 25 24 24 24 23 23 23 21 22 23 22 21 19 19 19 19 20 20 20 19 20 20 22 23 24 26 27 28
32 33 34 34 33 33 32 31 31 30 30 29 29 28 26 24 22 23 21 21 22 21 18 19 20 19 18 19 20 19 18 18 19 17 14 17 18 18 20 20 22 24 24
31 32 33 33 32 32 31 30 29 28 28 27 26 26 24 22 22 21 21 22 21 23 23 21 23 23 19 19 19 19 19 16 16 17 16 11 13 14 16 17 17 18 20
31 32 32 32 31 31 30 29 28 27 24 25 24 24 23 21 22 22 22 23 23 22 22 23 23 23 21 19 19 20 21 20 19 18 17 14 12 9 8 12 15 16 16
31 31 32 32 31 30 29 28 26 24 23 21 22 23 21 20 21 22 22 22 22 22 22 22 23 23 20 18 18 20 21 21 20 18 18 16 15 13 11 12 14 15 14
33 34 33 32 31 29 28 26 25 23 21 18 19 21 19 19 20 20 21 23 23 23 22 23 22 22 20 18 18 20 20 20 19 18 16 16 15 13 12 12 11 13 14
38 36 34 32 31 30 28 27 24 22 20 19 18 17 14 14 18 20 21 23 23 22 23 23 22 22 21 17 18 19 18 19 19 19 17 14 13 13 12 13 12 11 12
36 37 35 33 32 31 28 27 26 24 24 21 19 15 11 13 17 20 20 21 21 21 21 22 22 22 24 19 16 17 19 18 17 18 17 15 12 12 11 12 12 11 14
33 32 31 30 30 29 28 27 25 26 25 24 22 20 19 19 19 20 20 19 19 19 19 18 18 19 22 20 17 16 15 15 16 16 16 14 12 11 10 11 10 11 13
32 31 29 28 28 28 27 26 26 25 24 24 24 23 23 23 24 22 22 21 20 19 18 15 17 18 20 19 18 16 15 14 15 14 12 10 10 10 11 9 9 11 12
30 29 28 27 27 27 27 27 24 24 24 24 24 24 24 25 24 23 23 22 22 21 20 18 18 19 19 19 19 17 16 13 13 11 11 9 9 9 9 11 10 10 9
29 29 28 27 27 26 26 24 23 23 21 22 23 22 23 23 23 23 22 22 23 22 21 21 19 18 18 19 19 18 17 15 13 12 11 10 8 8 8 8 7 6 5
29 29 29 28 26 26 25 23 21 20 19 18 19 21 21 22 22 22 24 24 25 23 22 20 20 18 19 15 14 13 11 10 8 9 9 10 10 8 6 7 6 5 4

GFSMW_sfc_30mbdewp_168.txt.gz
Dewpoint
47 51 52 48 45 43 42 41 43 44 41 40 37 36 35 34 35 35 35 36 36 36 36 35 37 38 38 38 36 36 35 34 35 33 31 33 34 33 31 37 37 36 37
43 50 49 46 42 41 41 40 43 42 40 38 36 36 34 34 34 36 35 35 35 35 35 35 35 37 36 36 36 34 33 33 33 32 32 30 31 31 31 33 35 34 33
41 46 47 44 41 40 40 40 41 41 38 37 38 35 34 33 33 35 34 33 34 34 34 34 35 35 35 34 34 33 32 31 30 32 30 29 28 29 30 31 32 32 31
38 44 45 42 39 40 41 40 41 40 38 37 35 32 31 30 32 32 33 32 34 31 31 33 34 34 34 34 33 32 32 31 28 29 30 29 29 29 27 29 30 29 29
29 42 43 41 39 41 40 40 40 39 38 36 35 34 32 32 30 32 31 33 33 29 28 30 32 32 32 33 32 32 33 31 29 29 29 28 29 29 29 26 27 28 29
27 41 42 41 39 40 40 40 39 38 37 37 36 35 33 29 29 31 31 31 32 30 27 28 30 31 31 31 31 32 31 31 28 28 28 29 29 28 29 27 27 27 29
27 39 40 39 39 39 39 39 38 36 37 36 36 35 31 30 29 30 29 28 28 28 27 26 28 29 29 30 30 31 29 31 29 28 27 30 30 31 30 30 28 28 29
30 40 39 39 40 39 39 38 36 35 36 36 35 34 30 31 30 28 27 27 27 27 26 26 27 27 27 28 29 29 27 29 30 28 28 29 30 30 31 31 30 28 28
35 39 40 40 40 39 39 38 36 35 35 35 34 32 31 28 28 28 29 28 28 26 26 25 26 26 27 27 27 28 27 28 28 29 27 27 29 31 31 32 32 30 27
37 39 40 40 39 39 40 38 37 35 35 34 33 31 28 30 29 28 28 29 26 27 26 26 26 26 27 27 26 27 26 27 27 27 26 25 27 29 30 31 33 32 31
33 39 40 40 39 40 39 38 36 35 34 33 31 30 30 30 30 29 31 30 29 27 26 26 25 26 27 26 26 25 25 26 25 25 25 24 25 26 29 30 30 32 31
34 38 41 40 40 40 40 39 36 35 34 32 31 31 31 29 30 30 31 30 28 26 26 25 24 25 25 25 25 25 25 24 24 24 23 22 23 23 27 28 28 30 33
33 37 41 40 40 41 40 38 37 35 34 30 32 31 30 31 30 30 30 31 28 27 26 26 25 24 24 23 24 25 25 24 23 23 22 21 21 21 23 25 25 29 31
33 35 40 41 41 40 39 38 37 35 31 33 32 32 32 32 30 30 30 30 28 27 27 27 26 25 23 23 22 23 25 24 22 22 21 21 20 20 20 21 22 25 28
32 35 38 40 40 40 39 37 35 33 33 33 33 33 33 31 30 30 29 28 27 26 26 27 25 21 20 23 24 22 22 22 22 19 16 19 20 19 19 19 19 20 21
32 34 38 39 39 38 37 36 34 34 33 34 33 33 31 30 29 28 27 27 27 30 28 27 26 22 18 23 25 23 23 22 21 20 16 14 17 18 18 18 18 18 17
32 33 37 38 38 37 36 35 33 32 32 32 31 31 29 29 28 27 29 29 28 28 28 27 26 23 21 22 24 24 24 23 22 22 20 17 17 16 16 17 16 17 17
34 34 36 38 38 37 36 35 32 31 31 31 29 28 27 27 30 28 27 28 27 26 27 25 25 23 21 22 22 22 24 22 21 21 20 18 17 17 17 18 19 19 18
36 35 36 37 38 37 36 34 31 30 29 28 27 26 26 27 28 27 27 28 27 27 26 26 25 23 19 20 20 23 24 22 19 18 18 17 16 17 18 17 16 17 19
37 36 36 37 37 36 35 34 31 30 28 27 26 25 25 26 26 26 27 27 27 27 25 24 25 23 21 18 19 22 24 24 23 20 17 15 15 15 17 17 18 18 17
40 38 37 36 37 36 35 34 32 30 29 27 25 23 23 25 25 26 26 26 26 24 24 23 23 23 22 18 17 20 25 23 25 22 18 15 14 14 15 15 15 15 18
39 39 37 37 38 37 35 33 31 32 29 28 26 25 23 23 24 25 25 25 25 24 23 22 22 25 23 18 17 18 20 19 22 22 17 13 13 13 13 14 15 17 19
38 37 36 35 35 35 34 32 33 31 30 28 26 23 24 22 25 26 25 24 25 24 24 23 23 23 24 21 17 15 16 20 22 18 16 12 12 13 15 13 15 16 18
36 35 35 34 33 34 33 32 32 31 29 26 24 25 23 25 26 27 26 25 26 25 24 23 24 26 24 21 19 17 18 16 12 11 12 14 14 15 14 15 15 14 13
33 34 33 33 32 32 31 30 29 27 25 24 24 24 25 26 26 26 26 27 27 26 25 25 25 25 24 24 22 20 19 19 20 18 15 15 17 18 16 13 12 11 11
31 31 31 31 31 30 29 28 27 26 25 24 23 24 25 25 25 25 25 27 27 26 25 25 27 25 26 26 23 22 20 19 15 15 16 15 15 14 13 12 11 10 9

GFSMW_sfc_30mbdewp_171.txt.gz
Dewpoint
52 53 55 55 46 46 45 45 46 46 43 39 38 37 35 36 36 36 37 37 37 36 36 38 37 38 36 36 34 34 33 33 32 31 31 32 33 31 33 35 32 32 31
51 53 53 50 45 44 43 44 45 43 42 39 38 35 35 35 35 37 36 36 36 36 36 36 36 36 34 34 33 33 31 31 32 29 31 28 29 30 31 33 30 30 30
49 51 52 46 44 43 42 43 44 42 40 39 37 36 35 36 35 34 34 35 35 35 35 35 35 35 34 33 32 32 31 28 30 30 29 26 26 28 30 30 29 29 29
48 50 50 44 42 42 41 43 42 40 39 38 37 33 32 32 34 34 34 34 33 33 34 34 34 34 34 33 32 33 30 29 28 29 29 29 29 27 27 29 29 29 29
41 50 48 43 42 41 40 42 42 40 39 37 34 32 31 32 35 33 33 33 30 30 32 33 32 33 33 33 31 32 30 29 28 28 28 27 29 29 28 26 27 28 29
32 49 48 43 40 40 40 41 41 39 39 36 34 32 33 33 32 34 33 32 30 29 30 31 31 31 31 31 32 31 30 28 28 28 27 28 29 28 29 27 27 27 28
30 45 45 40 39 39 39 40 40 38 38 36 34 35 31 31 30 31 33 33 30 28 28 29 30 30 30 30 31 28 30 29 28 27 27 29 30 30 30 30 28 28 29
32 44 43 39 39 39 39 39 38 38 36 37 36 34 30 30 31 32 31 31 29 27 27 29 29 28 28 28 29 27 29 30 28 27 27 28 30 31 31 31 30 27 28
35 43 42 39 39 39 39 39 38 37 37 37 34 32 32 31 31 30 31 29 28 27 27 28 27 27 27 28 27 26 28 27 29 27 26 27 29 30 31 31 32 30 26
41 41 40 39 39 39 39 38 37 37 36 34 31 31 31 30 30 29 27 28 28 27 28 27 27 27 27 27 27 26 27 26 26 26 25 25 26 28 30 30 31 32 30
41 40 40 40 39 39 38 37 36 36 35 32 31 30 29 30 31 30 28 29 28 29 27 27 28 28 27 26 26 26 26 25 24 24 23 23 23 25 27 29 29 31 32
41 40 41 40 40 39 38 37 36 35 33 32 31 31 30 30 31 31 30 29 28 27 27 27 27 27 26 26 25 25 25 24 23 22 21 21 20 21 24 26 27 29 33
41 42 41 40 40 39 39 37 36 34 33 32 31 30 30 30 31 31 31 29 28 27 27 27 26 26 26 25 25 25 24 24 23 22 20 20 20 19 20 21 22 25 29
40 41 40 40 40 39 37 36 35 34 33 32 31 30 31 31 32 32 31 29 28 27 27 26 25 25 24 24 26 25 24 22 21 22 20 20 19 19 19 19 19 21 23
39 40 40 40 40 38 37 35 34 33 33 31 31 32 33 33 34 33 30 28 28 28 27 26 25 23 24 24 24 24 24 22 20 19 20 21 20 20 20 19 17 18 18
35 39 40 40 39 38 36 35 33 33 33 32 32 33 33 34 33 31 30 29 28 28 28 27 20 19 23 26 25 24 23 22 20 16 15 17 19 19 18 18 18 17 16
33 39 40 40 39 38 36 33 32 33 33 32 33 33 33 32 31 30 30 29 27 28 26 23 21 21 23 26 25 24 23 21 20 20 19 17 18 19 19 18 18 18 18
34 37 40 40 39 38 35 34 33 33 33 32 32 31 31 31 30 29 29 27 27 26 24 22 21 21 23 24 24 23 20 19 18 17 16 15 16 17 19 20 19 19 18
35 36 40 39 38 37 35 33 32 32 32 31 30 30 30 29 29 28 27 27 26 25 24 23 20 20 22 23 23 21 17 15 16 15 14 14 15 19 18 15 15 16 17
37 38 39 38 38 36 34 33 31 31 30 30 29 28 28 28 27 27 26 26 26 24 25 24 21 19 19 22 23 25 21 17 16 16 15 16 16 18 18 16 17 17 18
38 38 39 38 37 37 34 32 31 30 29 28 27 26 27 27 27 27 26 26 27 25 24 25 24 21 18 19 21 22 25 23 20 16 13 14 15 16 16 16 14 16 17
39 37 37 38 37 36 34 32 31 31 29 27 26 25 26 27 28 27 26 26 25 23 23 22 23 22 20 18 19 23 21 25 22 16 13 13 14 15 15 15 18 20 18
37 37 36 36 36 36 34 33 32 30 28 27 26 26 27 27 28 26 26 25 24 23 22 21 21 23 21 19 18 19 21 24 21 16 14 13 15 16 15 15 15 13 14
36 36 35 35 34 34 33 32 31 31 30 28 27 27 26 27 27 26 26 25 24 24 23 22 22 23 21 17 15 17 20 19 17 16 12 13 14 14 14 14 14 12 12
35 35 34 33 32 32 32 32 31 30 30 28 28 27 26 25 26 26 26 26 26 25 24 24 24 22 20 18 17 17 14 8 9 12 12 12 12 13 14 12 10 10 10
34 34 33 32 31 31 31 32 32 31 28 27 25 23 24 25 26 26 26 28 27 27 27 26 26 24 23 22 20 18 16 18 18 16 14 15 15 16 15 11 10 8 7